Location: Bothwell
(42.3833°S, 147.0000°E)
Time: 14:31:49
(UTC+11:00)

VELOX 1 - Visible Passes

Search period start: 27 February 2024 00:00
Search period end: 08 March 2024 00:00
Orbit: 608 x 622 km, 98.4° (Epoch: 26 February)

Date Brightness Start Highest point End Pass type
(mag) Time Alt. Az. Time Alt. Az. Time Alt. Az.
27 Feb ? 20:29:11 10° N 20:33:21 46° W 20:37:35 10° SSW visible
28 Feb ? 20:45:13 10° NNW 20:49:04 32° W 20:53:01 10° SSW visible
29 Feb ? 21:01:27 10° NW 21:04:50 22° W 21:08:16 10° SW visible
01 Mar ? 21:18:02 10° NW 21:20:36 15° W 21:23:13 10° SW visible
02 Mar ? 21:35:46 10° W 21:36:25 10° W 21:37:03 10° W visible
04 Mar ? 20:26:59 10° N 20:31:12 51° W 20:35:30 10° SSW visible
05 Mar ? 20:42:53 10° NNW 20:46:51 35° W 20:50:53 10° SSW visible
06 Mar ? 20:58:59 10° NNW 21:02:32 24° W 21:06:07 10° SW visible
07 Mar ? 21:15:24 10° NW 21:18:14 17° W 21:21:06 10° SW visible
